Погода в Пялице

Хотите узнать прогноз погоды в Пялице? Тогда Вам сюда: Погода в Пялице

Поиск расширенной информации на нашем сайте:

Полезная информация:

Новости сайта



02.01.2020
Опубликован Долгосрочный прогноз погоды по городам России и ближнего зарубежья на январь 2020 года.
Карты: Прогноз на январь и февраль 2020 года, Сравнение прогнозируемой аномалии приземной температуры воздуха на январь 2020 года по разным моделям.




Погода в Пялице - сегодня

Время (UTC), дата Ветер
(°,м/с) 
Видим.   Явления Облачность Т
(°С)
Тd
(°С)
f(%) Тe
(°С)
Pmin
(гПа)
dP
(гПа)
Po
(мм)
O2
(г/м3)
Тmin Tmax R s Состояние
почвы
18 29.11.20 210 (ЮЗ) 11-14{15}  4000 м  слаб. ливневой снег  10/10 300 м кучево-дожд. 
[Cb cap]
-1.1 -1.9 94 -7  1031.8  -0.6  773  313    -0.5  0.5     
21 29.11.20 210 (ЮЗ) 11-14{15}  10 км  слаб. ливневой снег  10/10 300 м кучево-дожд. 
[Cb cap]
-1.5 -2 96 -7  1031.4  -0.4  773  313           
00 30.11.20 210 (ЮЗ) 12-15{15}  4000 м  слаб. ливневой снег  10/10 300 м кучево-дожд. 
[Cb cap]
-1.4 -2.1 95 -7  1030.1  -1.3  772  313           
03 30.11.20 210 (ЮЗ) 11-14{16}  4000 м  слаб. ливневой снег  10/10 300 м кучево-дожд. 
[Cb cap]
-1.1 -1.4 98 -7  1029  -1.1  771  312  -1.8    0.9     
06 30.11.20 210 (ЮЗ) 10-12{15}  10 км  слаб. ливневой снег  10/10 300 м кучево-дожд. 
[Cb cap]
-0.8 -1.4 96 -6  1028.1  -0.9  770  311  -1.8    0.8  <0.5  равномерный
сухой снег
100% 
09 30.11.20 200 (Ю) 10-13{14}  20000 м  {ливн. осадки}  10/10 600 м 
[Sc]
-0.6 -1.4 94 -6  1027.8  -0.3  770  311           
12 30.11.20 200 (Ю) 10-12{13}  20000 м  {ливн. осадки}  10/10 600 м 
[Sc]
-0.3 -0.9 96 -5  1026.4  -1.4  769  310           
15 30.11.20 200 (Ю) 12-14{14}  20000 м    10/10 600 м 
[Sc]
+0.7 -0.3 93 -5  1024.3  -2.1  767  308      0.2     
18 30.11.20 190 (Ю) 14-16{16}  20000 м  в посл. час ливневой снег  10/10 600 м кучево-дожд. 
[Cb cap]
+0.6 -0.2 94 -5  1022.7  -1.6  766  308    +1.1  0.0     
21 30.11.20 190 (Ю) 11-12{15}  20000 м    9/9 600 м кучево-дожд. 
[Cb cap]
+1.2 +0.3 94 -4  1021.1  -1.6  765  307           
00 01.12.20 200 (Ю) 11-14{14}  20000 м  {ливн. осадки}  10/10 600 м кучево-дожд. 
[Cb cap]
+1.6 +0.5 92 -3  1019.2  -1.9  764  306           
03 01.12.20 200 (Ю) 12-14{14}  10 км  слаб. ливневой дождь  10/10 600 м кучево-дожд. 
[Cb cap]
+1.5 +0.7 94 -4  1017.5  -1.7  762  305  +0.5    0.0     
06 01.12.20 200 (Ю) 14-18{18}  10 км  слаб. ливневой дождь  10/10 300 м кучево-дожд. 
[Cb cap]
+1.5 +0.8 95 -4  1016.1  -1.4  761  305  +0.5    мокрый или
старый снег
10-40% 
09 01.12.20 200 (Ю) 14-19{19}  10 км  слаб. ливневой дождь  10/10 300 м кучево-дожд. 
[Cb cap]
+1.5 +0.9 96 -4  1015.4  -0.7  761  305           
12 01.12.20 230 (ЮЗ) 12-15{20}  20000 м  {ливн. осадки}  10/10 300 м кучево-дожд. 
[Cb cap]
+1.3 -1.8 80 -4  1016  0.6  761  305           
15 01.12.20 220 (ЮЗ) 13-16{18}  4000 м  слаб. ливневой снег  9/9 300 м кучево-дожд. 
[Cb cap]
+1.3 -1.1 84 -4  1016.1  0.1  761  305         
18 01.12.20 210 (ЮЗ) 13-16{17}  20000 м  {ливн. осадки}  8/8 300 м кучево-дожд. 
[Cb cap]
+1.2 -2.1 79 -4  1016.7  0.6  762  306    +2.2     
21 01.12.20 210 (ЮЗ) 11-13{16}  20000 м    10/10 600 м 
[Sc]
+1.4 -1.2 83 -3  1017.4  0.7  762  306           
00 02.12.20 220 (ЮЗ) 9-11{14}  20000 м    10/10 600 м 
[Sc]
+1.4 -0.4 88 -3  1018.1  0.7  763  306           
03 02.12.20 280 (З) 3-3{11}  20000 м  в посл. час ливневой снег  8/8 600 м кучево-дожд. 
[Cb cap]
-1.4 -1.5 99 -3  1019.6  1.5  764  310  -1.5    0.8     
06 02.12.20 270 (З) 2-3  20000 м  {ливн. осадки}  9/9 600 м кучево-дожд. 
[Cb cap]
-1.2 -1.5 98 -2  1021.4  1.8  765  310  -2.4    0.2  сухой снег
50-90% 
09 02.12.20 260 (З) 2-3  20000 м    9/9 600 м кучево-дожд. 
[Cb cap]
-0.6 -1.3 95 -1  1022.9  1.5  766  310           
12 02.12.20 260 (З) 4-5  50000 м  в посл. час ливневой снег  10/10 300 м кучево-дожд. 
[Cb cap]
+0 -0.4 97 -2  1022.9  766  309           
15 02.12.20 250 (З) 8-10{13}  20000 м    10/10 300 м кучево-дожд. 
[Cb cap]
-0.4 -1 96 -5  1023.3  0.4  767  310      0.2     
18 02.12.20 250 (З) 7-9{12}  20000 м  {ливн. осадки}  10/10 300 м кучево-дожд. 
[Cb cap]
-0.7 -1.5 94 -5  1023.8  0.5  767  310    +0.6  0.4     
Время (UTC), дата Ветер
(°,м/с) 
Видим.   Явления Облачность Т
(°С)
Тd
(°С)
f(%) Тe
(°С)
Pmin
(гПа)
dP
(гПа)
Po
(мм)
O2
(г/м3)
Тmin Tmax R s Состояние
почвы

Для получения пояснительной информации подведите курсор к названию столбца.

ПОГОДА в Пялице - архив

Всё, что Вы хотите узнать о погоде в Пялице - удобно и подробно!

Выберите нужную дату (начиная с 1 января 2019* года) и нажмите кнопку "Найти".
Будут отображены архивные сводки погоды по пункту Пялица, начиная с указанной даты.


Отображать данные в формате CSV (для использования в таблицах Excel)


Внимание! Наш архив погоды предназначен исключительно для личного некоммерческого использования в познавательных целях. Если Вам необходимы официальные справки о состоянии погоды (для производственных, юридических, коммерческих и т.п. целей), обращайтесь в органы Росгидромета.

*Примечание: данная дата относится к архиву по метеостанциям СССР (Россия, СНГ, Балтия).
Архив по метеостанциям Зарубежной Европы и Азии (кроме Китая) хранится 10 дней, по другим регионам земного шара (Китай, Африка, Америка, Австралия, Океания) - 1 день.

Пялица - район местоположения метеостанции


Название, широта, долгота, высота метеостанции:
Пялица 66.2°ш. 39.5°д. 9 м над ур. моря [Российская Федерация]

Дополнительная информация

В oтличие oт бoльшинства пoгoдных сайтoв мы публикуем пoдрoбную метеoинфoрмацию в детальнoм прoфессиoнальнoм фoрмате.

Характеристики температуры и влажнoсти вoздуха измеряются на высoте 2 м в тени вдали oт зданий и деревьев.
Скoрoсть ветра измеряется на высoте 10 м (на урoвне рoста челoвека скoрoсть ветра ниже в 1.5-2 раза). Если метеoстанция нахoдится в гoрoде или в лесу, тo скoрoсть ветра занижена на 2-4 м/с пo сравнению с oткрытым местoм. Скoрoсть ветра над акватoриями крупных рек и oзёр, а также на вершинах хoлмoв на 2-5 м/с выше, чем в oбычных услoвиях.
Атмoсфернoе давление в разных тoчках местнoсти мoжет значительнo oтличаться oт давления на метеoстанции, в зависимoсти oт услoвий рельефа (при пoдъёме на 10 м давление пoнижается примернo на 1 мм рт.ст.).